Vorticity
12 2 5 5 6 6 7 6 4 3 2 3 3 1 6 4 4 4 3 2 2 4 5 6 6 6 6 7 6 7 8 8 7 7 7 7 6 6 6 6 5 5 5
4 0 3 5 6 4 6 6 7 5 3 5 3 4 5 4 3 3 4 4 2 2 3 5 8 10 10 6 6 7 8 8 7 7 6 6 6 6 6 6 5 5 5
5 2 7 10 6 3 5 6 6 7 5 4 4 5 2 4 5 7 7 4 5 3 5 6 6 8 5 4 6 7 9 9 8 7 6 5 6 6 6 6 6 5 4
12 12 7 3 2 -2 7 3 5 4 6 7 6 4 4 2 3 3 3 2 5 6 4 6 6 7 5 4 6 7 8 8 9 8 6 7 6 6 6 6 5 5 4
0 -1 -0 -0 1 2 2 2 2 4 4 5 7 7 4 4 4 6 1 1 7 7 6 6 6 7 7 4 5 7 7 7 7 13 8 5 7 6 6 1 3 7 7
2 4 5 5 4 5 6 6 4 2 3 3 3 6 8 6 5 4 6 8 10 7 5 7 4 5 8 5 6 8 8 7 6 6 11 7 0 8 -2 11 7 10 14
5 11 11 6 5 7 2 2 2 4 7 2 4 4 6 6 6 5 5 7 8 4 5 9 5 6 7 6 5 7 9 8 7 8 6 8 1 1 6 0 1 7 1
9 10 12 11 9 6 4 5 5 4 4 5 4 6 5 5 7 4 5 5 5 3 4 6 5 8 8 7 8 8 8 8 8 9 6 5 6 0 1 6 1 4 1
6 6 5 9 11 15 16 15 9 2 1 4 1 4 6 4 5 4 3 6 3 4 5 3 3 7 8 8 7 7 9 9 9 4 12 4 1 5 11 1 3 2 2
6 7 8 5 8 6 7 9 11 17 19 6 0 3 2 5 4 5 5 4 3 3 2 3 4 4 5 4 6 8 10 8 10 6 3 3 2 3 9 6 4 4 3
8 6 8 3 4 6 7 7 6 8 11 15 18 6 1 4 3 5 5 5 5 1 1 5 5 5 4 3 4 2 9 11 8 12 -1 3 13 14 9 8 4 5 5
11 8 8 7 8 8 6 6 5 6 6 8 10 17 14 4 3 4 5 3 4 5 5 4 4 2 1 4 2 5 3 7 12 5 12 14 -3 11 5 4 4 5 5
11 12 12 9 7 7 8 8 7 6 6 6 7 9 12 16 8 4 2 5 5 4 4 6 4 4 5 7 -5 2 1 4 5 11 9 5 5 4 7 7 7 6 6
7 9 10 12 11 9 9 8 8 8 9 8 7 6 7 10 15 8 7 9 4 4 5 6 6 6 3 6 -2 4 4 4 5 6 9 11 7 8 6 6 6 5 6
6 6 8 9 9 8 8 7 8 8 8 9 9 9 7 6 8 13 9 5 6 4 3 5 6 7 4 4 4 -6 -4 2 3 5 8 9 10 8 8 7 6 4 7
4 5 5 7 7 8 8 8 7 8 8 7 7 8 10 8 7 8 11 4 8 5 5 5 7 7 6 5 5 7 5 3 -0 2 5 10 9 10 9 8 9 6 7
5 4 4 4 6 7 8 8 9 10 12 11 9 8 7 7 9 8 9 9 9 -2 10 3 5 4 8 5 6 5 5 1 0 4 4 1 9 9 11 9 10 12 12
5 3 3 3 4 5 6 6 5 4 6 9 10 9 10 11 9 6 9 9 9 10 5 3 4 5 6 8 5 5 8 -6 2 1 -3 2 7 7 10 10 11 19 7
3 4 5 4 4 5 6 6 6 6 6 6 8 10 10 10 12 11 9 7 9 9 9 10 1 6 0 1 4 3 4 7 2 -2 2 1 -3 6 7 12 13 7 16
6 7 4 6 4 5 6 5 6 6 6 6 7 9 9 10 10 11 12 12 10 9 10 11 12 -2 9 11 4 7 12 8 9 10 11 3 -9 9 7 11 11 14 8
6 7 6 8 5 6 7 6 5 5 3 4 5 7 9 10 10 11 11 12 12 11 11 12 10 12 1 1 -7 23 4 6 -0 8 -5 4 8 8 1 8 9 11 -0
4 6 7 8 6 7 7 8 7 3 2 8 7 6 7 8 9 9 11 11 10 11 13 12 13 14 7 6 0 -14 24 -6 7 1 15 6 8 25 5 -13 9 12 11
12 12 8 7 7 9 10 9 7 3 9 9 8 11 13 9 8 9 8 11 12 12 10 10 13 14 16 13 10 7 -7 11 15 -19 23 -2 -1 -18 -9 46 11 1 15
25 11 14 18 15 12 10 9 5 3 2 2 7 7 4 16 13 10 9 8 7 7 10 11 10 9 12 17 19 8 6 -4 -16 38 -10 10 -23 11 21 3 -9 -8 5
15 21 17 16 14 10 9 11 5 5 4 8 9 8 11 6 12 11 11 10 9 9 12 12 10 8 6 12 12 16 21 8 19 -11 2 -6 17 1 -15 -6 3 -10 11
20 19 15 11 9 9 10 8 5 2 5 8 9 10 10 12 11 11 11 10 9 9 11 13 16 14 12 7 9 10 9 17 2 6 2 -10 14 42 5 21 -1 5 18
Height
3151 3152 3153 3153 3154 3155 3156 3157 3158 3159 3160 3161 3163 3164 3165 3166 3167 3168 3168 3170 3171 3172 3172 3172 3172 3173 3173 3173 3173 3173 3173 3173 3173 3174 3175 3176 3177 3179 3180 3181 3182 3184 3184
3152 3152 3153 3154 3154 3155 3156 3157 3158 3159 3160 3161 3162 3163 3165 3166 3166 3167 3168 3169 3170 3171 3172 3172 3172 3172 3172 3173 3173 3173 3174 3174 3174 3175 3176 3177 3178 3180 3181 3182 3183 3185 3186
3151 3152 3153 3154 3155 3155 3156 3157 3158 3159 3160 3161 3162 3163 3164 3166 3166 3167 3168 3169 3170 3171 3171 3172 3172 3172 3172 3173 3173 3173 3174 3175 3175 3176 3177 3178 3179 3181 3182 3183 3185 3186 3187
3148 3152 3153 3154 3155 3156 3156 3157 3157 3158 3160 3160 3161 3162 3163 3164 3165 3166 3167 3168 3169 3170 3171 3172 3171 3172 3173 3173 3173 3173 3174 3175 3176 3177 3178 3179 3181 3182 3184 3185 3186 3187 3188
3146 3151 3152 3153 3154 3155 3156 3157 3157 3158 3159 3160 3160 3161 3163 3163 3164 3166 3167 3168 3169 3170 3171 3171 3171 3171 3172 3173 3173 3174 3174 3175 3176 3177 3178 3180 3182 3184 3184 3186 3187 3188 3190
3143 3148 3149 3151 3151 3153 3154 3155 3156 3157 3157 3158 3159 3160 3161 3162 3163 3164 3165 3166 3167 3169 3170 3171 3171 3172 3172 3173 3173 3174 3174 3175 3176 3177 3179 3181 3183 3185 3186 3188 3189 3190 3191
3140 3145 3146 3147 3148 3150 3151 3152 3154 3155 3156 3156 3157 3159 3160 3160 3162 3163 3164 3165 3167 3168 3169 3170 3170 3171 3172 3172 3173 3173 3174 3175 3176 3178 3179 3181 3183 3185 3186 3189 3189 3189 3190
3139 3140 3142 3143 3144 3146 3147 3149 3150 3152 3153 3154 3155 3156 3158 3159 3160 3161 3163 3164 3165 3167 3168 3169 3170 3171 3171 3172 3172 3173 3174 3175 3176 3178 3178 3180 3182 3184 3185 3187 3189 3189 3190
3136 3139 3138 3139 3140 3142 3143 3145 3146 3148 3149 3152 3153 3154 3155 3157 3158 3160 3161 3163 3164 3165 3167 3168 3169 3170 3171 3171 3172 3172 3173 3174 3175 3176 3178 3180 3181 3182 3184 3186 3187 3189 3190
3135 3136 3136 3137 3138 3139 3139 3141 3142 3143 3145 3146 3149 3151 3153 3154 3156 3158 3160 3160 3162 3164 3165 3166 3168 3169 3170 3171 3172 3172 3173 3173 3175 3177 3178 3179 3180 3182 3182 3184 3186 3188 3190
3132 3133 3134 3135 3135 3136 3136 3138 3138 3140 3141 3142 3144 3147 3149 3151 3153 3155 3157 3158 3160 3161 3163 3164 3165 3167 3168 3170 3171 3172 3172 3173 3173 3175 3177 3177 3178 3179 3181 3183 3185 3187 3188
3130 3130 3131 3131 3132 3133 3134 3134 3135 3136 3137 3139 3140 3141 3143 3146 3149 3151 3153 3154 3156 3158 3160 3162 3163 3164 3166 3168 3169 3170 3171 3172 3172 3173 3175 3176 3177 3178 3179 3181 3183 3185 3187
3127 3127 3127 3128 3129 3129 3130 3132 3132 3132 3134 3135 3136 3138 3139 3140 3143 3146 3148 3150 3152 3154 3156 3158 3160 3162 3164 3166 3167 3168 3169 3170 3171 3171 3173 3173 3175 3176 3178 3180 3182 3183 3185
3125 3125 3125 3125 3126 3126 3127 3127 3128 3129 3130 3132 3132 3133 3135 3136 3138 3139 3143 3146 3148 3150 3152 3154 3157 3159 3161 3162 3164 3166 3167 3167 3168 3169 3171 3172 3173 3174 3176 3177 3179 3181 3182
3122 3122 3122 3122 3122 3122 3123 3124 3125 3125 3126 3127 3129 3130 3130 3131 3134 3136 3138 3140 3143 3145 3148 3150 3152 3155 3157 3158 3160 3162 3164 3165 3166 3166 3168 3170 3171 3172 3173 3175 3176 3178 3180
3119 3118 3118 3119 3119 3119 3119 3120 3120 3121 3122 3122 3123 3125 3127 3128 3128 3130 3133 3135 3137 3140 3142 3145 3147 3150 3152 3154 3155 3157 3159 3161 3163 3163 3165 3167 3168 3170 3171 3171 3172 3175 3177
3115 3114 3114 3114 3115 3115 3115 3115 3115 3116 3116 3117 3118 3119 3121 3122 3123 3125 3127 3129 3132 3134 3136 3139 3142 3143 3146 3149 3150 3152 3155 3157 3158 3160 3160 3163 3165 3166 3168 3168 3169 3170 3172
3110 3109 3109 3109 3110 3110 3110 3110 3110 3111 3112 3112 3112 3112 3113 3115 3118 3118 3120 3123 3125 3127 3130 3132 3135 3137 3139 3143 3146 3148 3149 3151 3153 3154 3154 3158 3161 3162 3163 3165 3165 3168 3170
3106 3104 3104 3104 3104 3105 3105 3106 3106 3106 3106 3107 3107 3108 3107 3108 3110 3112 3113 3116 3118 3119 3122 3125 3127 3130 3133 3136 3139 3142 3143 3145 3146 3145 3148 3151 3155 3157 3159 3160 3162 3163 3166
3099 3099 3097 3099 3099 3099 3099 3099 3100 3101 3101 3101 3101 3101 3102 3102 3102 3104 3106 3108 3110 3111 3114 3116 3120 3122 3125 3129 3132 3134 3136 3138 3140 3142 3141 3146 3149 3152 3154 3155 3157 3160 3163
3093 3092 3091 3092 3092 3091 3092 3092 3093 3094 3094 3094 3094 3095 3095 3095 3096 3097 3098 3100 3102 3103 3106 3108 3111 3114 3118 3121 3125 3125 3128 3131 3133 3136 3136 3139 3142 3146 3149 3151 3153 3155 3158
3085 3086 3083 3084 3084 3084 3085 3086 3085 3087 3088 3088 3088 3088 3088 3089 3089 3090 3091 3092 3094 3095 3096 3099 3101 3104 3107 3112 3116 3117 3119 3123 3123 3127 3127 3131 3135 3140 3141 3145 3147 3150 3152
3076 3077 3077 3076 3076 3076 3077 3078 3079 3080 3081 3082 3081 3081 3081 3081 3082 3083 3084 3085 3085 3087 3088 3091 3092 3094 3098 3102 3105 3109 3111 3110 3115 3119 3119 3123 3127 3129 3133 3133 3137 3144 3146
3068 3068 3068 3068 3068 3069 3070 3072 3073 3073 3073 3073 3074 3074 3075 3075 3074 3074 3076 3077 3078 3078 3079 3081 3083 3085 3087 3091 3095 3098 3101 3105 3106 3107 3114 3115 3118 3125 3126 3128 3133 3135 3139
3060 3060 3060 3060 3061 3062 3063 3065 3065 3066 3067 3066 3067 3066 3066 3066 3067 3067 3067 3068 3068 3069 3069 3072 3074 3075 3078 3080 3083 3087 3091 3095 3097 3100 3103 3107 3110 3113 3118 3120 3124 3127 3128
3053 3053 3053 3053 3054 3055 3055 3057 3058 3059 3060 3060 3060 3059 3059 3058 3058 3057 3059 3059 3059 3060 3060 3061 3063 3065 3067 3070 3072 3076 3079 3083 3085 3091 3094 3098 3103 3104 3109 3112 3114 3118 3120